Lexington Weather

Lexington, Massachusetts, USA

42°F
4/22/2024 8:24am 
  • Lexington Conditions: Clear
  • Temperature: 42.1°F / 5.6°CWarmer 3.8°F than last hour.
  • Dew Point: 27.1°FDecreased 2.6°Fsince last hour.
  • Relative Humidity: 55%Decreased 16.0% since last hour.
  • Wind: Calm, 10-min avg: Calm, gust: None
  • Barometer: 29.95 in Steady
  • Visibility: 10 miles
  • Rain Today: 0.00 in
  •   

Regional Weather Roundup
for Boston, MA

        
000
ASUS41 KBOX 201710
RWRBOX

REGIONAL WEATHER ROUNDUP
NATIONAL WEATHER SERVICE BOSTON/NORTON MA
100 PM EDT SAT APR 20 2024

NOTE:  "FAIR" INDICATES FEW OR NO CLOUDS BELOW 12,000 FEET WITH NO 
SIGNIFICANT WEATHER AND/OR OBSTRUCTIONS TO VISIBILITY.

MAZALL-201800-
EASTERN MASSACHUSETTS
  
CITY           SKY/WX    TMP DP  RH WIND       PRES   REMARKS
BOSTON         CLOUDY    54  50  86 SW9       29.86F                  
BEVERLY        CLOUDY    54  50  86 SW5       29.85F                  
LAWRENCE       CLOUDY    57  48  72 W6        29.86F                  
BEDFORD        CLOUDY    56  47  71 CALM      29.85F                  
NORWOOD        CLOUDY    55  49  80 SW6       29.87F                  
MARSHFIELD     CLOUDY    50  48  93 W5G12     29.88F                  
PLYMOUTH       LGT RAIN  51  48  89 SW6       29.87F                  
TAUNTON        LGT RAIN  51  47  86 W7        29.89F                  
NEW BEDFORD    LGT RAIN  51  49  92 SW5       29.88F                  
$$

MAZALL-201800-
CAPE COD AND THE ISLANDS
  
CITY           SKY/WX    TMP DP  RH WIND       PRES   REMARKS
FALMOUTH       LGT RAIN  48  48 100 SW6G13    29.88F FOG              
HYANNIS        LGT RAIN  48  47  96 S6        29.86F FOG              
CHATHAM        RAIN      48  47  96 VRB3      29.88F FOG              
PROVINCETOWN   LGT RAIN  49  49 100 SW8       29.89F                  
NANTUCKET      CLOUDY    48  48 100 W9        29.89F                  
MARTHAS VNYRD  RAIN      49  49 100 SW5       29.89F FOG              
$$
 
MAZALL-201800-
CENTRAL AND WESTERN MASSACHUSETTS
  
CITY           SKY/WX    TMP DP  RH WIND       PRES   REMARKS
WORCESTER      CLOUDY    57  42  57 NW9       29.85F                  
FITCHBURG      CLOUDY    60  44  55 NW9       29.85F                  
ORANGE         CLOUDY    55  43  63 W7        29.87F                  
SPRINGFIELD    PTSUNNY   56  46  68 CALM      29.84F                  
WESTFIELD      PTSUNNY   59  42  53 NW10      29.86F                  
NORTH ADAMS    PTSUNNY   55  32  41 W12       29.88F                  
PITTSFIELD     CLOUDY    53  33  46 NW9       29.87F                  
$$
 
RIZALL-201800-
RHODE ISLAND
  
CITY           SKY/WX    TMP DP  RH WIND       PRES   REMARKS
PROVIDENCE     CLOUDY    51  50  96 SW6       29.89F                  
NEWPORT        LGT RAIN  48  47  96 VRB3      29.88F                  
BLOCK ISLAND   LGT RAIN  47  47 100 W8        29.91F                  
SMITHFIELD     CLOUDY    52  51  97 VRB6      29.87F                  
WESTERLY       CLOUDY    50  48  93 VRB5      29.90F                  
$$
 
CTZALL-201800-
CONNECTICUT
  
CITY           SKY/WX    TMP DP  RH WIND       PRES   REMARKS
BRADLEY INTL   PTSUNNY   62  49  62 S7        29.86F                  
HARTFORD       CLOUDY    58  50  75 S9        29.87F                  
PLAINVILLE     CLOUDY    60  43  52 VRB5      29.87F                  
BRIDGEPORT     MOSUNNY   55  49  80 SW13      29.90F                  
DANBURY        CLOUDY    61  46  57 SW9       29.89F                  
GROTON         CLOUDY    51  51 100 SW7       29.88F FOG              
NEW HAVEN      PTSUNNY   56  52  86 SW7       29.89F FOG              
CHESTER        CLOUDY    55  50  82 SW5       29.89F                  
MERIDEN        PTSUNNY   60  46  59 VRB6      29.88F                  
WILLIMANTIC    CLOUDY    54  48  80 SW3       29.88F                  
OXFORD         CLOUDY    57  47  69 VRB5      29.89F                  
$$

MEZ002-015-021-024-NHZ003-005-008-011-012-014-VTZ005-008-201800-
NORTHERN NEW ENGLAND
  
CITY           SKY/WX    TMP DP  RH WIND       PRES   REMARKS
PORTLAND ME    PTSUNNY   51  49  92 VRB6      29.85S                  
BANGOR ME      LGT RAIN  46  44  93 CALM      29.85F                  
CONCORD NH     CLOUDY    53  46  77 SW3       29.84F                  
MANCHESTER NH  CLOUDY    58  44  60 W8        29.84F                  
NASHUA NH      CLOUDY    58  48  69 VRB7      29.85F                  
PORTSMOUTH NH  CLOUDY    58  49  72 SW5       29.84F                  
JAFFREY NH     CLOUDY    55  42  61 W8        29.86F                  
KEENE NH       CLOUDY    54  46  74 SW10      29.86F                  
BURLINGTON VT  PTSUNNY   56  20  24 SW8       29.82F                  
MT. WASHINGTON FOG       23  23 100 W36         N/A  VSB 0   WCI   4  
$$

NYZ052-076-201800-
EASTERN NEW YORK
  
CITY           SKY/WX    TMP DP  RH WIND       PRES   REMARKS
ALBANY         PTSUNNY   59  32  36 W9        29.89F                  
NEW YORK CITY  PTSUNNY   63  46  54 W9        29.90F                  
$$
 
ANZALL-201800-
MARINE OBSERVATIONS
  
STATION/POSITION TIME  TEMP    WIND        PRES    VSBY  WAVE
                       AIR SEA DIR/SP/G                  HT/PER
                 (UTC) (F)     (DEG/KT/KT) (MB)    (MI)  (FT/S)
BOSTON BUOY      1650   46     210/  6/  6 1011.3F         1/11
BUZZARDS BAY     1600   45     230/  8/  9 1013.1F
NANTUCKET SOUND  1650   48 48  240/  8/ 10 1011.7F         1
MASS BAY-STELLWA 1504   46 46  190/  8/ 10 1012.8F  1 7/8  2/ 8
ISLE OF SHOALS   1600   47     190/  9/  9 1010.9F
S OF BLOCK IS    1656      45                N/A           4/ 8
$$

......................KEY.........................
  SKY/WX - SKY CONDITION/PRESENT WEATHER
  TMP    - TEMPERATURE IN FAHRENHEIT
  DWPT   - DEWPOINT IN FAHRENHEIT
  RH     - RELATIVE HUMIDITY IN PERCENT
  WIND   - DIRECTION AND SPEED IN MPH
  PRES   - MEAN SEA LEVEL PRESSURE IN INCHES OF HG
  WCI    - WIND CHILL INDEX
  VSB    - VISIBILITY IN MILES
  HX     - HEAT INDEX
  TC     - TEMPERATURE IN CELSIUS
  VRB    - VARIABLE WIND DIRECTION
  N/A    - NOT AVAILABLE
  
      

Other recent Regional Weather Roundups

Mon Apr 22, 8:10am EDT

Mon Apr 22, 7:10am EDT

Mon Apr 22, 6:10am EDT

Mon Apr 22, 5:10am EDT

Mon Apr 22, 4:10am EDT

Mon Apr 22, 3:10am EDT

Mon Apr 22, 2:10am EDT

Mon Apr 22, 1:10am EDT

Mon Apr 22, 12:10am EDT

Sun Apr 21, 11:10pm EDT

Sun Apr 21, 10:10pm EDT

Sun Apr 21, 9:10pm EDT

Sun Apr 21, 8:10pm EDT

Sun Apr 21, 7:10pm EDT

Sun Apr 21, 6:10pm EDT

Sun Apr 21, 5:10pm EDT

Sun Apr 21, 4:10pm EDT

Sun Apr 21, 3:10pm EDT

Sun Apr 21, 2:10pm EDT

Sun Apr 21, 1:10pm EDT

Sun Apr 21, 12:10pm EDT

Sun Apr 21, 11:10am EDT

Sun Apr 21, 10:10am EDT

Sun Apr 21, 9:10am EDT

Sun Apr 21, 8:10am EDT

Sun Apr 21, 7:10am EDT

Sun Apr 21, 6:10am EDT

Sun Apr 21, 5:10am EDT

Sun Apr 21, 4:10am EDT

Sun Apr 21, 3:10am EDT

Sun Apr 21, 2:10am EDT

Sun Apr 21, 1:10am EDT

Sun Apr 21, 12:10am EDT

Sat Apr 20, 11:10pm EDT

Sat Apr 20, 10:10pm EDT

Sat Apr 20, 9:10pm EDT

Sat Apr 20, 8:10pm EDT

Sat Apr 20, 7:10pm EDT

Sat Apr 20, 6:10pm EDT

Sat Apr 20, 5:10pm EDT

Sat Apr 20, 4:10pm EDT

Sat Apr 20, 3:10pm EDT

Sat Apr 20, 2:10pm EDT

Sat Apr 20, 12:10pm EDT

Sat Apr 20, 11:10am EDT

Sat Apr 20, 10:10am EDT

Sat Apr 20, 9:10am EDT

Sat Apr 20, 8:10am EDT

Sat Apr 20, 7:10am EDT

Sat Apr 20, 6:10am EDT

Sat Apr 20, 5:10am EDT

Sat Apr 20, 4:10am EDT

Sat Apr 20, 3:10am EDT

Sat Apr 20, 2:10am EDT

Sat Apr 20, 1:10am EDT

Sat Apr 20, 12:10am EDT

Fri Apr 19, 11:10pm EDT

Fri Apr 19, 10:10pm EDT

Fri Apr 19, 9:10pm EDT

Fri Apr 19, 8:10pm EDT

Fri Apr 19, 7:10pm EDT

Fri Apr 19, 6:10pm EDT

Fri Apr 19, 5:10pm EDT

Fri Apr 19, 4:10pm EDT

Fri Apr 19, 3:10pm EDT

Fri Apr 19, 2:10pm EDT

Fri Apr 19, 1:10pm EDT

Fri Apr 19, 12:10pm EDT

Fri Apr 19, 11:10am EDT

Fri Apr 19, 10:10am EDT

Fri Apr 19, 9:10am EDT

Fri Apr 19, 8:10am EDT

Fri Apr 19, 7:10am EDT

Fri Apr 19, 6:10am EDT

Fri Apr 19, 5:10am EDT

Fri Apr 19, 4:10am EDT

Fri Apr 19, 3:10am EDT

Fri Apr 19, 2:10am EDT

Fri Apr 19, 1:10am EDT

Fri Apr 19, 12:10am EDT

Thu Apr 18, 11:10pm EDT

Thu Apr 18, 10:10pm EDT

Thu Apr 18, 9:10pm EDT

Thu Apr 18, 8:10pm EDT

Thu Apr 18, 7:10pm EDT

Thu Apr 18, 6:10pm EDT

Thu Apr 18, 5:10pm EDT

Thu Apr 18, 4:10pm EDT

Thu Apr 18, 3:10pm EDT

Thu Apr 18, 2:10pm EDT

Thu Apr 18, 1:10pm EDT

Thu Apr 18, 12:10pm EDT

Thu Apr 18, 11:10am EDT

Thu Apr 18, 10:10am EDT

Thu Apr 18, 9:10am EDT

Thu Apr 18, 8:10am EDT

Thu Apr 18, 7:10am EDT

Thu Apr 18, 6:10am EDT

Thu Apr 18, 5:10am EDT

Thu Apr 18, 4:10am EDT

Thu Apr 18, 3:10am EDT

Thu Apr 18, 2:10am EDT

Thu Apr 18, 1:10am EDT

Thu Apr 18, 12:10am EDT

Wed Apr 17, 11:10pm EDT

Wed Apr 17, 10:10pm EDT

Wed Apr 17, 9:10pm EDT

Wed Apr 17, 8:10pm EDT

Wed Apr 17, 7:10pm EDT

Wed Apr 17, 6:10pm EDT

Wed Apr 17, 5:10pm EDT

Wed Apr 17, 4:10pm EDT

Wed Apr 17, 3:10pm EDT

Wed Apr 17, 2:10pm EDT

Wed Apr 17, 1:10pm EDT

Wed Apr 17, 12:10pm EDT

Wed Apr 17, 11:10am EDT

Wed Apr 17, 10:10am EDT

Wed Apr 17, 9:10am EDT

Wed Apr 17, 8:10am EDT

Wed Apr 17, 7:10am EDT

Wed Apr 17, 6:10am EDT

Wed Apr 17, 5:10am EDT

Wed Apr 17, 4:10am EDT

Wed Apr 17, 3:10am EDT

Wed Apr 17, 2:10am EDT

Wed Apr 17, 1:10am EDT

Wed Apr 17, 12:10am EDT

Tue Apr 16, 11:10pm EDT

Tue Apr 16, 10:10pm EDT

Tue Apr 16, 9:10pm EDT

Tue Apr 16, 8:10pm EDT

Tue Apr 16, 7:10pm EDT

Tue Apr 16, 6:10pm EDT

Tue Apr 16, 5:10pm EDT

Tue Apr 16, 4:10pm EDT

Tue Apr 16, 3:10pm EDT

Tue Apr 16, 2:10pm EDT

Tue Apr 16, 1:10pm EDT

Tue Apr 16, 12:10pm EDT

Tue Apr 16, 11:10am EDT

Tue Apr 16, 10:10am EDT

Tue Apr 16, 9:10am EDT

Tue Apr 16, 8:10am EDT

Tue Apr 16, 7:10am EDT

Tue Apr 16, 6:10am EDT

Tue Apr 16, 5:10am EDT

Tue Apr 16, 4:10am EDT

Tue Apr 16, 3:10am EDT

Tue Apr 16, 2:10am EDT

Tue Apr 16, 1:10am EDT

Tue Apr 16, 12:10am EDT

Mon Apr 15, 11:10pm EDT

Mon Apr 15, 10:10pm EDT

Mon Apr 15, 9:10pm EDT

Mon Apr 15, 8:10pm EDT

Mon Apr 15, 7:10pm EDT

Mon Apr 15, 6:10pm EDT

Mon Apr 15, 5:10pm EDT

Mon Apr 15, 4:10pm EDT

Mon Apr 15, 3:10pm EDT

Mon Apr 15, 2:10pm EDT

Mon Apr 15, 1:10pm EDT

Mon Apr 15, 12:10pm EDT

Mon Apr 15, 11:10am EDT

Mon Apr 15, 10:10am EDT

Mon Apr 15, 9:10am EDT